Home   Weather   Volos   Past weeks

Flag for Greece Past Weather in Volos, Greece — Yesterday and Last 2 Weeks

Now
73 °F

Sunny.


Feels Like: 74 °F
Forecast: 57 / 81 °F
Wind: 6 mph from North

Location: Skiathos Island

Current Time: Oct 1, 2016 at 4:56:17 PM

Latest Report: Oct 1, 2016 at 3:50 PM


Visibility: 10 mi

Pressure: 30.01 "Hg

Humidity: 78%

Dew Point: 66 °F

Location of VolosLocation

Past Weather in Volos — Graph

°F

Volos Temperature Yesterday

Maximum temperature yesterday: 75 °F (at 2:50 PM)
Minimum temperature yesterday: 57 °F (at 6:50 AM)
Average temperature yesterday: 68 °F

High & Low Weather Summary for the Past Weeks

 TemperatureHumidityPressure
High86 °F (Sep 17, 1:50 PM)94% (Sep 22, 9:50 AM)30.36 "Hg (Sep 22, 9:50 AM)
Low57 °F (Sep 24, 4:50 AM)32% (Sep 20, 1:50 PM)29.68 "Hg (Sep 20, 5:50 AM)
Average70 °F68%30.04 "Hg
* Reported Sep 16 3:50 PM — Oct 1 3:50 PM, Volos, Weather by CustomWeather, © 2016

Note: Actual official high and low records may vary slightly from our data, if they occured in-between our weather recording intervals... More about our weather records

Advertising

Volos Weather History for the Previous 24 Hours

Scroll right to see more
 ConditionsComfort  
Time TempWeatherWind HumidityBarometerVisibility
3:50 PM
Sat, Oct 1
73 °FSunny.6 mph78%30.01 "Hg10 mi
2:50 PM73 °FSunny.6 mph78%30.04 "Hg10 mi
1:50 PM73 °FSunny.6 mph78%30.04 "Hg10 mi
12:50 PM73 °FSunny.6 mph83%30.04 "Hg10 mi
11:50 AM73 °FSunny.7 mph74%30.07 "Hg10 mi
10:50 AM72 °FSunny.5 mph83%30.04 "Hg10 mi
9:50 AM68 °FSunny.No wind88%30.04 "Hg10 mi
8:50 AM61 °FSunny.No wind94%30.04 "Hg10 mi
7:50 AM57 °FSunny.No wind94%30.04 "Hg10 mi
6:50 AM59 °FClear.No wind94%30.04 "Hg10 mi
9:50 PM
Fri, Sep 30
64 °FClear.No wind88%30.09 "Hg10 mi
8:50 PM66 °FClear.No wind83%30.09 "Hg10 mi
7:50 PM70 °FClear.No wind78%30.09 "Hg10 mi
6:50 PM72 °FSunny.No wind73%30.09 "Hg10 mi
5:50 PM73 °FSunny.5 mph69%30.09 "Hg10 mi
4:50 PM75 °FPassing clouds.5 mph54%30.09 "HgN/A
Weather by CustomWeather, © 2016

See weather overviewHow to use our weather pages